Barkald — V7IM6 — position and weather

sailwx.info

Track history (hours):
 
Tides and Currents Weather Stations Pressure Air Temp Water Temp Dewpoint Dewpoint Depression Visibility Wind Speed Wind Dir Waves Ship Positions

Barkald

Last reported at 2014-Aug-29 06:29 UTC. Time now 2014-Aug-29 08:05 UTC.
Position N 36°00' W 005°20'.

Length 189 m; draft 7.5 m.

MMSI: 538002409.

Date/timePositionNaut miles runAvg speedWind from/ knotsBaromVisibWave heightAir tempDewpointWater temp
2014-Aug-29 06:29N 36°00' W 005°20'7512.7
2014-Aug-29 00:33N 35°59' W 006°52'1713.9
2014-Aug-28 23:20N 36°01' W 007°13'1113.7
2014-Aug-28 22:33N 36°03' W 007°26'1513.7
2014-Aug-28 21:29N 36°05' W 007°44'1313.6
2014-Aug-28 20:33N 36°06' W 007°60'1413.9
2014-Aug-28 19:31N 36°08' W 008°17'1513.7
2014-Aug-28 18:27N 36°10' W 008°35'1314.2
2014-Aug-28 17:33N 36°14' W 008°50'1414.2
2014-Aug-28 16:33N 36°17' W 009°08'1413.7
2014-Aug-28 15:33N 36°19' W 009°24'1313.2
2014-Aug-28 14:34N 36°24' W 009°40'1313.1
2014-Aug-28 13:33N 36°29' W 009°55'1313.0
2014-Aug-28 12:33N 36°33' W 010°10'1711.3
2014-Aug-28 11:05N 36°39' W 010°29'1 1.1
2014-Aug-28 10:34N 36°39' W 010°30'1 0.9
2014-Aug-28 09:30N 36°40' W 010°31'4 4.3
2014-Aug-28 08:32N 36°42' W 010°36'1212.5
2014-Aug-28 07:33N 36°47' W 010°50'1413.9
2014-Aug-28 06:33N 36°52' W 011°06'1713.7
2014-Aug-28 05:19N 36°58' W 011°26'  
2014-Aug-25 16:28N 41°00' W 029°44'2014.8
2014-Aug-25 15:08N 41°04' W 030°09'914.7
2014-Aug-25 14:33N 41°05' W 030°20'  
2014-Aug-20 08:14N 38°35' W 070°23'913.9
2014-Aug-20 07:33N 38°35' W 070°35'1413.6
2014-Aug-20 06:34N 38°36' W 070°52'1313.4
2014-Aug-20 05:33N 38°37' W 071°10'2912.9
2014-Aug-20 03:18N 38°38' W 071°47'1013.0
2014-Aug-20 02:33N 38°39' W 071°59'1312.8
2014-Aug-20 01:33N 38°39' W 072°16'1313.1
2014-Aug-20 00:33N 38°40' W 072°33'1413.6
2014-Aug-19 23:33N 38°40' W 072°50'1414.0
2014-Aug-19 22:33N 38°41' W 073°08'1514.4
2014-Aug-19 21:32N 38°42' W 073°27'1514.7
2014-Aug-19 20:30N 38°43' W 073°46'1414.5
2014-Aug-19 19:33N 38°44' W 074°04'8911.1
2014-Aug-19 11:30N 39°43' W 075°30'9 3.8
2014-Aug-19 09:13N 39°50' W 075°23'5 7.1
2014-Aug-19 08:32N 39°51' W 075°16'8 6.4
2014-Aug-19 07:16N 39°56' W 075°08'  
Track history (hours):
 
Tides and Currents Weather Stations Pressure Air Temp Water Temp Dewpoint Dewpoint Depression Visibility Wind Speed Wind Dir Waves Ship Positions

Barkald

Last reported at 2014-Aug-29 06:29 UTC. Time now 2014-Aug-29 08:05 UTC.
Position N 36°00' W 005°20'.

Length 189 m; draft 7.5 m.

MMSI: 538002409.

Date/timePositionNaut miles runAvg speedWind from/ knotsBaromVisibWave heightAir tempDewpointWater temp
2014-Aug-29 06:29N 36°00' W 005°20'7512.7
2014-Aug-29 00:33N 35°59' W 006°52'1713.9
2014-Aug-28 23:20N 36°01' W 007°13'1113.7
2014-Aug-28 22:33N 36°03' W 007°26'1513.7
2014-Aug-28 21:29N 36°05' W 007°44'1313.6
2014-Aug-28 20:33N 36°06' W 007°60'1413.9
2014-Aug-28 19:31N 36°08' W 008°17'1513.7
2014-Aug-28 18:27N 36°10' W 008°35'1314.2
2014-Aug-28 17:33N 36°14' W 008°50'1414.2
2014-Aug-28 16:33N 36°17' W 009°08'1413.7
2014-Aug-28 15:33N 36°19' W 009°24'1313.2
2014-Aug-28 14:34N 36°24' W 009°40'1313.1
2014-Aug-28 13:33N 36°29' W 009°55'1313.0
2014-Aug-28 12:33N 36°33' W 010°10'1711.3
2014-Aug-28 11:05N 36°39' W 010°29'1 1.1
2014-Aug-28 10:34N 36°39' W 010°30'1 0.9
2014-Aug-28 09:30N 36°40' W 010°31'4 4.3
2014-Aug-28 08:32N 36°42' W 010°36'1212.5
2014-Aug-28 07:33N 36°47' W 010°50'1413.9
2014-Aug-28 06:33N 36°52' W 011°06'1713.7
2014-Aug-28 05:19N 36°58' W 011°26'  
2014-Aug-25 16:28N 41°00' W 029°44'2014.8
2014-Aug-25 15:08N 41°04' W 030°09'914.7
2014-Aug-25 14:33N 41°05' W 030°20'  
2014-Aug-20 08:14N 38°35' W 070°23'913.9
2014-Aug-20 07:33N 38°35' W 070°35'1413.6
2014-Aug-20 06:34N 38°36' W 070°52'1313.4
2014-Aug-20 05:33N 38°37' W 071°10'2912.9
2014-Aug-20 03:18N 38°38' W 071°47'1013.0
2014-Aug-20 02:33N 38°39' W 071°59'1312.8
2014-Aug-20 01:33N 38°39' W 072°16'1313.1
2014-Aug-20 00:33N 38°40' W 072°33'1413.6
2014-Aug-19 23:33N 38°40' W 072°50'1414.0
2014-Aug-19 22:33N 38°41' W 073°08'1514.4
2014-Aug-19 21:32N 38°42' W 073°27'1514.7
2014-Aug-19 20:30N 38°43' W 073°46'1414.5
2014-Aug-19 19:33N 38°44' W 074°04'8911.1
2014-Aug-19 11:30N 39°43' W 075°30'9 3.8
2014-Aug-19 09:13N 39°50' W 075°23'5 7.1
2014-Aug-19 08:32N 39°51' W 075°16'8 6.4
2014-Aug-19 07:16N 39°56' W 075°08'  

Dump ship's entire track history